TimeMDT,TemperatureF,Dew PointF,Humidity,Sea Level PressureIn,VisibilityMPH,Wind Direction,Wind SpeedMPH,Gust SpeedMPH,PrecipitationIn,Events,Conditions,WindDirDegrees,DateUTC
12:15 AM,32.0,28.4,87,30.19,10.0,NE,6.9,-,N/A,,Scattered Clouds,40,2011-10-09 06:15:00
12:35 AM,32.0,28.4,87,30.19,10.0,NE,5.8,-,N/A,,Partly Cloudy,50,2011-10-09 06:35:00
12:55 AM,33.8,28.4,81,30.19,10.0,Calm,Calm,-,N/A,,Scattered Clouds,0,2011-10-09 06:55:00
1:15 AM,33.8,28.4,81,30.19,10.0,NE,3.5,-,N/A,,Overcast,50,2011-10-09 07:15:00
1:35 AM,35.6,30.2,81,30.19,10.0,NE,8.1,-,N/A,,Overcast,50,2011-10-09 07:35:00
1:55 AM,35.6,30.2,81,30.19,10.0,NE,6.9,-,N/A,,Overcast,50,2011-10-09 07:55:00
2:15 AM,35.6,30.2,81,30.19,10.0,NNE,4.6,-,N/A,,Overcast,30,2011-10-09 08:15:00
2:35 AM,35.6,30.2,81,30.19,10.0,NNE,3.5,-,N/A,,Overcast,30,2011-10-09 08:35:00
2:55 AM,33.8,30.2,87,30.19,10.0,Calm,Calm,-,N/A,,Overcast,0,2011-10-09 08:55:00
3:15 AM,33.8,30.2,87,30.18,10.0,North,3.5,-,N/A,,Overcast,10,2011-10-09 09:15:00
3:35 AM,33.8,30.2,87,30.19,10.0,North,6.9,-,N/A,,Mostly Cloudy,360,2011-10-09 09:35:00
3:55 AM,35.6,30.2,81,30.19,10.0,North,5.8,-,N/A,,Overcast,360,2011-10-09 09:55:00
4:15 AM,35.6,30.2,81,30.19,10.0,North,8.1,-,N/A,,Overcast,10,2011-10-09 10:15:00
4:35 AM,35.6,30.2,81,30.20,10.0,North,4.6,-,N/A,,Overcast,350,2011-10-09 10:35:00
4:55 AM,37.4,30.2,75,30.21,10.0,Calm,Calm,-,N/A,,Overcast,0,2011-10-09 10:55:00
5:15 AM,37.4,30.2,75,30.21,10.0,Calm,Calm,-,N/A,,Overcast,0,2011-10-09 11:15:00
5:35 AM,37.4,32.0,81,30.20,10.0,NNE,5.8,-,N/A,,Overcast,20,2011-10-09 11:35:00
6:15 AM,37.4,30.2,75,30.20,10.0,NNE,5.8,-,N/A,,Overcast,30,2011-10-09 12:15:00
6:35 AM,37.4,32.0,81,30.19,10.0,ENE,4.6,-,N/A,,Overcast,70,2011-10-09 12:35:00
6:55 AM,35.6,32.0,87,30.19,10.0,ENE,3.5,-,N/A,,Overcast,70,2011-10-09 12:55:00
7:15 AM,35.6,30.2,81,30.20,10.0,ENE,3.5,-,N/A,,Overcast,70,2011-10-09 13:15:00
7:35 AM,33.8,28.4,81,30.20,10.0,NNW,4.6,-,N/A,,Scattered Clouds,340,2011-10-09 13:35:00
7:55 AM,33.8,30.2,87,30.21,10.0,NNW,5.8,-,N/A,,Clear,340,2011-10-09 13:55:00
8:15 AM,33.8,30.2,87,30.22,10.0,NNW,5.8,-,N/A,,Mostly Cloudy,340,2011-10-09 14:15:00
8:35 AM,35.6,32.0,87,30.23,10.0,North,9.2,-,N/A,,Mostly Cloudy,350,2011-10-09 14:35:00
8:55 AM,37.4,33.8,87,30.24,10.0,North,8.1,-,N/A,,Overcast,360,2011-10-09 14:55:00
9:15 AM,39.2,33.8,81,30.24,10.0,North,5.8,-,N/A,,Overcast,360,2011-10-09 15:15:00
9:35 AM,41.0,33.8,76,30.24,10.0,North,8.1,-,N/A,,Overcast,360,2011-10-09 15:35:00
9:55 AM,42.8,33.8,70,30.25,10.0,North,4.6,-,N/A,,Overcast,10,2011-10-09 15:55:00
10:15 AM,44.6,33.8,66,30.24,10.0,Calm,Calm,-,N/A,,Mostly Cloudy,0,2011-10-09 16:15:00
10:35 AM,44.6,32.0,61,30.24,10.0,Calm,Calm,-,N/A,,Mostly Cloudy,0,2011-10-09 16:35:00
10:55 AM,44.6,32.0,61,30.24,10.0,Calm,Calm,-,N/A,,Mostly Cloudy,0,2011-10-09 16:55:00
11:15 AM,46.4,32.0,57,30.24,10.0,Calm,Calm,-,N/A,,Partly Cloudy,0,2011-10-09 17:15:00
11:35 AM,46.4,30.2,53,30.23,10.0,Calm,Calm,-,N/A,,Scattered Clouds,0,2011-10-09 17:35:00
11:55 AM,48.2,33.8,58,30.22,10.0,SSW,3.5,-,N/A,,Scattered Clouds,210,2011-10-09 17:55:00
12:15 PM,46.4,33.8,62,30.22,10.0,WSW,4.6,-,N/A,,Mostly Cloudy,250,2011-10-09 18:15:00
12:35 PM,46.4,32.0,57,30.21,10.0,SW,5.8,-,N/A,,Overcast,220,2011-10-09 18:35:00
12:55 PM,50.0,33.8,54,30.20,10.0,SSW,11.5,-,N/A,,Mostly Cloudy,200,2011-10-09 18:55:00
1:15 PM,50.0,30.2,47,30.19,10.0,SW,10.4,-,N/A,,Scattered Clouds,220,2011-10-09 19:15:00
1:35 PM,51.8,33.8,50,30.18,10.0,SW,10.4,18.4,N/A,,Mostly Cloudy,230,2011-10-09 19:35:00
1:55 PM,51.8,33.8,50,30.17,10.0,West,10.4,-,N/A,,Overcast,260,2011-10-09 19:55:00
2:15 PM,51.8,30.2,44,30.17,10.0,SW,9.2,-,N/A,,Overcast,230,2011-10-09 20:15:00
2:35 PM,50.0,28.4,43,30.16,10.0,SSW,5.8,-,N/A,,Overcast,210,2011-10-09 20:35:00
2:55 PM,51.8,30.2,44,30.15,10.0,West,11.5,20.7,N/A,,Mostly Cloudy,260,2011-10-09 20:55:00
3:15 PM,51.8,30.2,44,30.15,10.0,WSW,3.5,-,N/A,,Partly Cloudy,250,2011-10-09 21:15:00
3:35 PM,51.8,33.8,50,30.15,10.0,WSW,12.7,-,N/A,,Scattered Clouds,250,2011-10-09 21:35:00
3:55 PM,51.8,30.2,44,30.15,10.0,WSW,10.4,-,N/A,,Mostly Cloudy,250,2011-10-09 21:55:00
4:15 PM,53.6,28.4,38,30.15,10.0,WSW,11.5,-,N/A,,Mostly Cloudy,250,2011-10-09 22:15:00
4:35 PM,51.8,28.4,41,30.16,10.0,West,8.1,-,N/A,,Overcast,280,2011-10-09 22:35:00
5:35 PM,48.2,30.2,50,30.16,10.0,WSW,11.5,-,N/A,,Overcast,240,2011-10-09 23:35:00
5:55 PM,48.2,28.4,46,30.17,10.0,West,11.5,-,N/A,,Overcast,260,2011-10-09 23:55:00
6:35 PM,46.4,30.2,53,30.17,10.0,West,5.8,-,N/A,,Overcast,270,2011-10-10 00:35:00
6:55 PM,46.4,30.2,53,30.18,10.0,West,4.6,-,N/A,,Overcast,270,2011-10-10 00:55:00
7:15 PM,46.4,32.0,57,30.18,10.0,West,3.5,-,N/A,,Overcast,270,2011-10-10 01:15:00
7:35 PM,44.6,30.2,57,30.18,10.0,West,4.6,-,N/A,,Overcast,270,2011-10-10 01:35:00
7:55 PM,42.8,30.2,61,30.19,10.0,West,6.9,-,N/A,,Mostly Cloudy,270,2011-10-10 01:55:00
8:35 PM,39.2,30.2,70,30.19,10.0,West,6.9,-,N/A,,Clear,270,2011-10-10 02:35:00
8:55 PM,39.2,30.2,70,30.20,10.0,WNW,4.6,-,N/A,,Clear,300,2011-10-10 02:55:00
9:15 PM,37.4,30.2,75,30.21,10.0,North,4.6,-,N/A,,Mostly Cloudy,350,2011-10-10 03:15:00
9:35 PM,39.2,33.8,81,30.21,10.0,East,3.5,-,N/A,,Overcast,90,2011-10-10 03:35:00
9:55 PM,39.2,30.2,70,30.21,10.0,SE,5.8,-,N/A,,Mostly Cloudy,130,2011-10-10 03:55:00
10:15 PM,37.4,32.0,81,30.22,10.0,East,4.6,-,N/A,,Clear,100,2011-10-10 04:15:00
10:35 PM,37.4,30.2,75,30.22,10.0,Calm,Calm,-,N/A,,Clear,0,2011-10-10 04:35:00
10:55 PM,35.6,30.2,81,30.21,10.0,East,6.9,-,N/A,,Clear,100,2011-10-10 04:55:00
11:15 PM,35.6,30.2,81,30.21,10.0,East,6.9,-,N/A,,Clear,90,2011-10-10 05:15:00
11:35 PM,35.6,30.2,81,30.21,10.0,East,5.8,-,N/A,,Clear,90,2011-10-10 05:35:00
11:55 PM,33.8,30.2,87,30.21,10.0,Calm,Calm,-,N/A,,Partly Cloudy,0,2011-10-10 05:55:00